Year,Month,Day,Hour,Minute,Value (Times are PST for temperature in C)
2016,04,17,00,00,9.40
2016,04,17,00,01,9.40
2016,04,17,00,02,9.40
2016,04,17,00,03,9.40
2016,04,17,00,04,9.30
2016,04,17,00,05,9.30
2016,04,17,00,06,9.30
2016,04,17,00,07,9.30
2016,04,17,00,08,9.30
2016,04,17,00,09,9.30
2016,04,17,00,10,9.30
2016,04,17,00,11,9.30
2016,04,17,00,12,9.30
2016,04,17,00,13,9.30
2016,04,17,00,14,9.30
2016,04,17,00,15,9.30
2016,04,17,00,16,9.30
2016,04,17,00,17,9.30
2016,04,17,00,18,9.30
2016,04,17,00,19,9.30
2016,04,17,00,20,9.30
2016,04,17,00,21,9.30
2016,04,17,00,22,9.30
2016,04,17,00,23,9.30
2016,04,17,00,24,9.30
2016,04,17,00,25,9.30
2016,04,17,00,26,9.30
2016,04,17,00,27,9.30
2016,04,17,00,28,9.30
2016,04,17,00,29,9.30
2016,04,17,00,30,9.30
2016,04,17,00,31,9.30
2016,04,17,00,32,9.30
2016,04,17,00,33,9.30
2016,04,17,00,34,9.30
2016,04,17,00,35,9.30
2016,04,17,00,36,9.30
2016,04,17,00,37,9.30
2016,04,17,00,38,9.30
2016,04,17,00,39,9.30
2016,04,17,00,40,9.30
2016,04,17,00,41,9.30
2016,04,17,00,42,9.30
2016,04,17,00,43,9.30
2016,04,17,00,44,9.30
2016,04,17,00,45,9.30
2016,04,17,00,46,9.30
2016,04,17,00,47,9.30
2016,04,17,00,48,9.30
2016,04,17,00,49,9.30
2016,04,17,00,50,9.30
2016,04,17,00,51,9.30
2016,04,17,00,52,9.30
2016,04,17,00,53,9.30
2016,04,17,00,54,9.30
2016,04,17,00,55,9.20
2016,04,17,00,56,9.20
2016,04,17,00,57,9.20
2016,04,17,00,58,9.20
2016,04,17,00,59,9.20
2016,04,17,01,00,9.20
2016,04,17,01,01,9.20
2016,04,17,01,02,9.20
2016,04,17,01,03,9.20
2016,04,17,01,04,9.20
2016,04,17,01,05,9.20
2016,04,17,01,06,9.20
2016,04,17,01,07,9.20
2016,04,17,01,08,9.20
2016,04,17,01,09,9.20
2016,04,17,01,10,9.20
2016,04,17,01,11,9.20
2016,04,17,01,12,9.20
2016,04,17,01,13,9.20
2016,04,17,01,14,9.20
2016,04,17,01,15,9.20
2016,04,17,01,16,9.30
2016,04,17,01,17,9.20
2016,04,17,01,18,9.20
2016,04,17,01,19,9.20
2016,04,17,01,20,9.20
2016,04,17,01,21,9.20
2016,04,17,01,22,9.20
2016,04,17,01,23,9.20
2016,04,17,01,24,9.20
2016,04,17,01,25,9.20
2016,04,17,01,26,9.20
2016,04,17,01,27,9.20
2016,04,17,01,28,9.20
2016,04,17,01,29,9.20
2016,04,17,01,30,9.20
2016,04,17,01,31,9.20
2016,04,17,01,32,9.20
2016,04,17,01,33,9.20
2016,04,17,01,34,9.20
2016,04,17,01,35,9.20
2016,04,17,01,36,9.20
2016,04,17,01,37,9.20
2016,04,17,01,38,9.20
2016,04,17,01,39,9.20
2016,04,17,01,40,9.20
2016,04,17,01,41,9.20
2016,04,17,01,42,9.20
2016,04,17,01,43,9.10
2016,04,17,01,44,9.10
2016,04,17,01,45,9.10
2016,04,17,01,46,9.10
2016,04,17,01,47,9.10
2016,04,17,01,48,9.10
2016,04,17,01,49,9.10
2016,04,17,01,50,9.10
2016,04,17,01,51,9.00
2016,04,17,01,52,9.00
2016,04,17,01,53,9.00
2016,04,17,01,54,9.00
2016,04,17,01,55,9.00
2016,04,17,01,56,9.00
2016,04,17,01,57,9.00
2016,04,17,01,58,8.90
2016,04,17,01,59,8.90
2016,04,17,02,00,8.90
2016,04,17,02,01,8.90
2016,04,17,02,02,8.90
2016,04,17,02,03,8.90
2016,04,17,02,04,8.90
2016,04,17,02,05,8.90
2016,04,17,02,06,8.90
2016,04,17,02,07,8.90
2016,04,17,02,08,8.90
2016,04,17,02,09,8.90
2016,04,17,02,10,8.90
2016,04,17,02,11,8.90
2016,04,17,02,12,8.90
2016,04,17,02,13,8.80
2016,04,17,02,14,8.80
2016,04,17,02,15,8.80
2016,04,17,02,16,8.80
2016,04,17,02,17,8.80
2016,04,17,02,18,8.80
2016,04,17,02,19,8.80
2016,04,17,02,20,8.80
2016,04,17,02,21,8.80
2016,04,17,02,22,8.90
2016,04,17,02,23,8.90
2016,04,17,02,24,8.90
2016,04,17,02,25,8.90
2016,04,17,02,26,8.90
2016,04,17,02,27,8.90
2016,04,17,02,28,8.90
2016,04,17,02,29,8.90
2016,04,17,02,30,8.90
2016,04,17,02,31,8.90
2016,04,17,02,32,8.90
2016,04,17,02,33,8.90
2016,04,17,02,34,8.90
2016,04,17,02,35,8.90
2016,04,17,02,36,8.90
2016,04,17,02,37,8.90
2016,04,17,02,38,8.90
2016,04,17,02,39,8.90
2016,04,17,02,40,8.90
2016,04,17,02,41,8.90
2016,04,17,02,42,8.90
2016,04,17,02,43,8.90
2016,04,17,02,44,8.90
2016,04,17,02,45,8.90
2016,04,17,02,46,8.90
2016,04,17,02,47,8.90
2016,04,17,02,48,8.90
2016,04,17,02,49,8.90
2016,04,17,02,50,8.90
2016,04,17,02,51,8.90
2016,04,17,02,52,8.90
2016,04,17,02,53,9.00
2016,04,17,02,54,9.00
2016,04,17,02,55,9.00
2016,04,17,02,56,9.00
2016,04,17,02,57,9.00
2016,04,17,02,58,9.00
2016,04,17,02,59,9.00
2016,04,17,03,00,9.00
2016,04,17,03,01,9.00
2016,04,17,03,02,9.00
2016,04,17,03,03,9.00
2016,04,17,03,04,9.00
2016,04,17,03,05,9.00
2016,04,17,03,06,9.00
2016,04,17,03,07,9.00
2016,04,17,03,08,9.00
2016,04,17,03,09,9.00
2016,04,17,03,10,9.00
2016,04,17,03,11,9.00
2016,04,17,03,12,9.00
2016,04,17,03,13,9.00
2016,04,17,03,14,9.00
2016,04,17,03,15,9.00
2016,04,17,03,16,9.10
2016,04,17,03,17,9.10
2016,04,17,03,18,9.00
2016,04,17,03,19,9.10
2016,04,17,03,20,9.10
2016,04,17,03,21,9.10
2016,04,17,03,22,9.10
2016,04,17,03,23,9.10
2016,04,17,03,24,9.10
2016,04,17,03,25,9.10
2016,04,17,03,26,9.10
2016,04,17,03,27,9.10
2016,04,17,03,28,9.10
2016,04,17,03,29,9.10
2016,04,17,03,30,9.10
2016,04,17,03,31,9.10
2016,04,17,03,32,9.10
2016,04,17,03,33,9.10
2016,04,17,03,34,9.10
2016,04,17,03,35,9.10
2016,04,17,03,36,9.10
2016,04,17,03,37,9.10
2016,04,17,03,38,9.10
2016,04,17,03,39,9.10
2016,04,17,03,40,9.10
2016,04,17,03,41,9.10
2016,04,17,03,42,9.10
2016,04,17,03,43,9.10
2016,04,17,03,44,9.10
2016,04,17,03,45,9.10
2016,04,17,03,46,9.10
2016,04,17,03,47,9.10
2016,04,17,03,48,9.10
2016,04,17,03,49,9.10
2016,04,17,03,50,9.10
2016,04,17,03,51,9.10
2016,04,17,03,52,9.10
2016,04,17,03,53,9.10
2016,04,17,03,54,9.10
2016,04,17,03,55,9.10
2016,04,17,03,56,9.10
2016,04,17,03,57,9.10
2016,04,17,03,58,9.20
2016,04,17,03,59,9.20
2016,04,17,04,00,9.20
2016,04,17,04,01,9.20
2016,04,17,04,02,9.20
2016,04,17,04,03,9.20
2016,04,17,04,04,9.20
2016,04,17,04,05,9.20
2016,04,17,04,06,9.20
2016,04,17,04,07,9.20
2016,04,17,04,08,9.20
2016,04,17,04,09,9.20
2016,04,17,04,10,9.20
2016,04,17,04,11,9.20
2016,04,17,04,12,9.20
2016,04,17,04,13,9.20
2016,04,17,04,14,9.20
2016,04,17,04,15,9.20
2016,04,17,04,16,9.20
2016,04,17,04,17,9.20
2016,04,17,04,18,9.20
2016,04,17,04,19,9.20
2016,04,17,04,20,9.20
2016,04,17,04,21,9.20
2016,04,17,04,22,9.20
2016,04,17,04,23,9.20
2016,04,17,04,24,9.20
2016,04,17,04,25,9.20
2016,04,17,04,26,9.20
2016,04,17,04,27,9.20
2016,04,17,04,28,9.10
2016,04,17,04,29,9.20
2016,04,17,04,30,9.10
2016,04,17,04,31,9.10
2016,04,17,04,32,9.20
2016,04,17,04,33,9.20
2016,04,17,04,34,9.20
2016,04,17,04,35,9.20
2016,04,17,04,36,9.20
2016,04,17,04,37,9.20
2016,04,17,04,38,9.20
2016,04,17,04,39,9.20
2016,04,17,04,40,9.20
2016,04,17,04,41,9.20
2016,04,17,04,42,9.20
2016,04,17,04,43,9.20
2016,04,17,04,44,9.10
2016,04,17,04,45,9.20
2016,04,17,04,46,9.10
2016,04,17,04,47,9.10
2016,04,17,04,48,9.10
2016,04,17,04,49,9.10
2016,04,17,04,50,9.10
2016,04,17,04,51,9.10
2016,04,17,04,52,9.10
2016,04,17,04,53,9.10
2016,04,17,04,54,9.10
2016,04,17,04,55,9.10
2016,04,17,04,56,9.10
2016,04,17,04,57,9.10
2016,04,17,04,58,9.10
2016,04,17,04,59,9.10
2016,04,17,05,00,9.10
2016,04,17,05,01,9.10
2016,04,17,05,02,9.10
2016,04,17,05,03,9.10
2016,04,17,05,04,9.00
2016,04,17,05,05,9.00
2016,04,17,05,06,9.00
2016,04,17,05,07,9.00
2016,04,17,05,08,9.00
2016,04,17,05,09,9.00
2016,04,17,05,10,9.00
2016,04,17,05,11,9.00
2016,04,17,05,12,9.00
2016,04,17,05,13,9.00
2016,04,17,05,14,9.00
2016,04,17,05,15,8.90
2016,04,17,05,16,8.90
2016,04,17,05,17,8.90
2016,04,17,05,18,8.90
2016,04,17,05,19,8.90
2016,04,17,05,20,8.90
2016,04,17,05,21,8.90
2016,04,17,05,22,8.90
2016,04,17,05,23,8.90
2016,04,17,05,24,8.90
2016,04,17,05,25,8.90
2016,04,17,05,26,8.90
2016,04,17,05,27,8.80
2016,04,17,05,28,8.80
2016,04,17,05,29,8.80
2016,04,17,05,30,8.80
2016,04,17,05,31,8.80
2016,04,17,05,32,8.80
2016,04,17,05,33,8.80
2016,04,17,05,34,8.80
2016,04,17,05,35,8.80
2016,04,17,05,36,8.80
2016,04,17,05,37,8.80
2016,04,17,05,38,8.80
2016,04,17,05,39,8.80
2016,04,17,05,40,8.80
2016,04,17,05,41,8.80
2016,04,17,05,42,8.70
2016,04,17,05,43,8.70
2016,04,17,05,44,8.70
2016,04,17,05,45,8.70
2016,04,17,05,46,8.70
2016,04,17,05,47,8.70
2016,04,17,05,48,8.70
2016,04,17,05,49,8.70
2016,04,17,05,50,8.70
2016,04,17,05,51,8.70
2016,04,17,05,52,8.70
2016,04,17,05,53,8.70
2016,04,17,05,54,8.70
2016,04,17,05,55,8.70
2016,04,17,05,56,8.70
2016,04,17,05,57,8.70
2016,04,17,05,58,8.70
2016,04,17,05,59,8.70
2016,04,17,06,00,8.70
2016,04,17,06,01,8.60
2016,04,17,06,02,8.60
2016,04,17,06,03,8.60
2016,04,17,06,04,8.60
2016,04,17,06,05,8.60
2016,04,17,06,06,8.50
2016,04,17,06,07,8.50
2016,04,17,06,08,8.40
2016,04,17,06,09,8.40
2016,04,17,06,10,8.40
2016,04,17,06,11,8.40
2016,04,17,06,12,8.40
2016,04,17,06,13,8.40
2016,04,17,06,14,8.40
2016,04,17,06,15,8.40
2016,04,17,06,16,8.40
2016,04,17,06,17,8.40
2016,04,17,06,18,8.40
2016,04,17,06,19,8.40
2016,04,17,06,20,8.40
2016,04,17,06,21,8.40
2016,04,17,06,22,8.40
2016,04,17,06,23,8.40
2016,04,17,06,24,8.40
2016,04,17,06,25,8.40
2016,04,17,06,26,8.40
2016,04,17,06,27,8.40
2016,04,17,06,28,8.30
2016,04,17,06,29,8.30
2016,04,17,06,30,8.30
2016,04,17,06,31,8.30
2016,04,17,06,32,8.30
2016,04,17,06,33,8.30
2016,04,17,06,34,8.30
2016,04,17,06,35,8.30
2016,04,17,06,36,8.30
2016,04,17,06,37,8.30
2016,04,17,06,38,8.30
2016,04,17,06,39,8.30
2016,04,17,06,40,8.30
2016,04,17,06,41,8.30
2016,04,17,06,42,8.30
2016,04,17,06,43,8.30
2016,04,17,06,44,8.30
2016,04,17,06,45,8.30
2016,04,17,06,46,8.30
2016,04,17,06,47,8.30
2016,04,17,06,48,8.30
2016,04,17,06,49,8.30
2016,04,17,06,50,8.30
2016,04,17,06,51,8.30
2016,04,17,06,52,8.30
2016,04,17,06,53,8.30
2016,04,17,06,54,8.30
2016,04,17,06,56,8.30
2016,04,17,06,57,8.30
2016,04,17,06,58,8.30
2016,04,17,06,59,8.30
2016,04,17,07,00,8.30
2016,04,17,07,01,8.30
2016,04,17,07,02,8.40
2016,04,17,07,03,8.40
2016,04,17,07,04,8.40
2016,04,17,07,05,8.40
2016,04,17,07,06,8.40
2016,04,17,07,07,8.40
2016,04,17,07,08,8.50
2016,04,17,07,09,8.50
2016,04,17,07,10,8.50
2016,04,17,07,11,8.60
2016,04,17,07,12,8.60
2016,04,17,07,13,8.60
2016,04,17,07,14,8.60
2016,04,17,07,15,8.60
2016,04,17,07,16,8.60
2016,04,17,07,17,8.60
2016,04,17,07,18,8.70
2016,04,17,07,19,8.70
2016,04,17,07,20,8.70
2016,04,17,07,21,8.70
2016,04,17,07,22,8.70
2016,04,17,07,23,8.80
2016,04,17,07,24,8.80
2016,04,17,07,25,8.80
2016,04,17,07,26,8.80
2016,04,17,07,27,8.80
2016,04,17,07,28,8.80
2016,04,17,07,29,8.90
2016,04,17,07,30,8.90
2016,04,17,07,31,8.90
2016,04,17,07,32,8.90
2016,04,17,07,33,8.90
2016,04,17,07,34,8.90
2016,04,17,07,35,9.00
2016,04,17,07,36,9.00
2016,04,17,07,37,9.00
2016,04,17,07,38,9.00
2016,04,17,07,39,9.00
2016,04,17,07,40,9.10
2016,04,17,07,41,9.10
2016,04,17,07,42,9.10
2016,04,17,07,43,9.10
2016,04,17,07,44,9.10
2016,04,17,07,45,9.10
2016,04,17,07,46,9.20
2016,04,17,07,47,9.20
2016,04,17,07,48,9.20
2016,04,17,07,49,9.20
2016,04,17,07,50,9.20
2016,04,17,07,51,9.20
2016,04,17,07,52,9.30
2016,04,17,07,53,9.30
2016,04,17,07,54,9.30
2016,04,17,07,55,9.30
2016,04,17,07,56,9.30
2016,04,17,07,57,9.30
2016,04,17,07,58,9.40
2016,04,17,07,59,9.40
2016,04,17,08,00,9.40
2016,04,17,08,01,9.40
2016,04,17,08,02,9.50
2016,04,17,08,03,9.50
2016,04,17,08,04,9.50
2016,04,17,08,05,9.50
2016,04,17,08,06,9.60
2016,04,17,08,07,9.60
2016,04,17,08,08,9.60
2016,04,17,08,09,9.60
2016,04,17,08,10,9.60
2016,04,17,08,11,9.70
2016,04,17,08,12,9.70
2016,04,17,08,13,9.70
2016,04,17,08,14,9.70
2016,04,17,08,15,9.70
2016,04,17,08,16,9.80
2016,04,17,08,17,9.80
2016,04,17,08,18,9.80
2016,04,17,08,19,9.80
2016,04,17,08,20,9.80
2016,04,17,08,21,9.90
2016,04,17,08,22,9.90
2016,04,17,08,23,9.90
2016,04,17,08,24,9.90
2016,04,17,08,25,10.00
2016,04,17,08,26,10.00
2016,04,17,08,27,10.00
2016,04,17,08,28,10.10
2016,04,17,08,29,10.10
2016,04,17,08,30,10.10
2016,04,17,08,31,10.10
2016,04,17,08,32,10.20
2016,04,17,08,33,10.20
2016,04,17,08,34,10.20
2016,04,17,08,35,10.20
2016,04,17,08,36,10.20
2016,04,17,08,37,10.20
2016,04,17,08,38,10.20
2016,04,17,08,39,10.20
2016,04,17,08,40,10.20
2016,04,17,08,41,10.30
2016,04,17,08,42,10.30
2016,04,17,08,43,10.30
2016,04,17,08,44,10.40
2016,04,17,08,45,10.40
2016,04,17,08,46,10.40
2016,04,17,08,47,10.40
2016,04,17,08,48,10.50
2016,04,17,08,49,10.50
2016,04,17,08,50,10.50
2016,04,17,08,51,10.50
2016,04,17,08,52,10.50
2016,04,17,08,53,10.50
2016,04,17,08,54,10.60
2016,04,17,08,55,10.60
2016,04,17,08,56,10.60
2016,04,17,08,57,10.60
2016,04,17,08,58,10.70
2016,04,17,08,59,10.70
2016,04,17,09,00,10.70
2016,04,17,09,01,10.80
2016,04,17,09,02,10.80
2016,04,17,09,03,10.80
2016,04,17,09,04,10.90
2016,04,17,09,05,10.90
2016,04,17,09,06,10.90
2016,04,17,09,07,10.90
2016,04,17,09,08,11.00
2016,04,17,09,09,11.00
2016,04,17,09,10,11.10
2016,04,17,09,11,11.10
2016,04,17,09,12,11.10
2016,04,17,09,13,11.20
2016,04,17,09,14,11.20
2016,04,17,09,15,11.30
2016,04,17,09,16,11.30
2016,04,17,09,17,11.30
2016,04,17,09,18,11.40
2016,04,17,09,19,11.40
2016,04,17,09,20,11.40
2016,04,17,09,21,11.40
2016,04,17,09,22,11.40
2016,04,17,09,23,11.50
2016,04,17,09,24,11.50
2016,04,17,09,25,11.50
2016,04,17,09,26,11.50
2016,04,17,09,27,11.60
2016,04,17,09,28,11.60
2016,04,17,09,29,11.60
2016,04,17,09,30,11.60
2016,04,17,09,31,11.60
2016,04,17,09,32,11.60
2016,04,17,09,33,11.60
2016,04,17,09,34,11.70
2016,04,17,09,35,11.70
2016,04,17,09,36,11.70
2016,04,17,09,37,11.70
2016,04,17,09,38,11.70
2016,04,17,09,39,11.70
2016,04,17,09,40,11.70
2016,04,17,09,41,11.80
2016,04,17,09,42,11.80
2016,04,17,09,43,11.80
2016,04,17,09,44,11.80
2016,04,17,09,45,11.80
2016,04,17,09,46,11.80
2016,04,17,09,47,11.80
2016,04,17,09,48,11.80
2016,04,17,09,49,11.90
2016,04,17,09,50,11.90
2016,04,17,09,51,11.90
2016,04,17,09,52,12.00
2016,04,17,09,53,12.10
2016,04,17,09,54,12.10
2016,04,17,09,55,12.20
2016,04,17,09,56,12.20
2016,04,17,09,57,12.30
2016,04,17,09,58,12.30
2016,04,17,09,59,12.30
2016,04,17,10,00,12.30
2016,04,17,10,01,12.30
2016,04,17,10,02,12.40
2016,04,17,10,03,12.30
2016,04,17,10,04,12.30
2016,04,17,10,05,12.40
2016,04,17,10,06,12.40
2016,04,17,10,07,12.40
2016,04,17,10,08,12.50
2016,04,17,10,09,12.50
2016,04,17,10,10,12.50
2016,04,17,10,11,12.50
2016,04,17,10,12,12.50
2016,04,17,10,13,12.50
2016,04,17,10,14,12.50
2016,04,17,10,15,12.50
2016,04,17,10,16,12.60
2016,04,17,10,17,12.60
2016,04,17,10,18,12.60
2016,04,17,10,19,12.60
2016,04,17,10,20,12.60
2016,04,17,10,21,12.60
2016,04,17,10,22,12.60
2016,04,17,10,23,12.60
2016,04,17,10,24,12.60
2016,04,17,10,25,12.60
2016,04,17,10,26,12.60
2016,04,17,10,27,12.60
2016,04,17,10,28,12.60
2016,04,17,10,29,12.60
2016,04,17,10,30,12.60
2016,04,17,10,31,12.60
2016,04,17,10,32,12.60
2016,04,17,10,33,12.60
2016,04,17,10,34,12.60
2016,04,17,10,35,12.60
2016,04,17,10,36,12.50
2016,04,17,10,37,12.60
2016,04,17,10,38,12.60
2016,04,17,10,39,12.60
2016,04,17,10,40,12.60
2016,04,17,10,41,12.60
2016,04,17,10,42,12.60
2016,04,17,10,43,12.50
2016,04,17,10,44,12.50
2016,04,17,10,45,12.50
2016,04,17,10,46,12.50
2016,04,17,10,47,12.50
2016,04,17,10,48,12.50
2016,04,17,10,49,12.60
2016,04,17,10,50,12.60
2016,04,17,10,51,12.60
2016,04,17,10,52,12.70
2016,04,17,10,53,12.70
2016,04,17,10,54,12.70
2016,04,17,10,55,12.80
2016,04,17,10,56,12.80
2016,04,17,10,57,12.90
2016,04,17,10,58,13.00
2016,04,17,10,59,13.10
2016,04,17,11,00,13.10
2016,04,17,11,01,13.20
2016,04,17,11,02,13.20
2016,04,17,11,03,13.30
2016,04,17,11,04,13.30
2016,04,17,11,05,13.30
2016,04,17,11,06,13.40
2016,04,17,11,07,13.40
2016,04,17,11,08,13.40
2016,04,17,11,09,13.50
2016,04,17,11,10,13.60
2016,04,17,11,11,13.60
2016,04,17,11,12,13.70
2016,04,17,11,13,13.70
2016,04,17,11,14,13.80
2016,04,17,11,15,13.80
2016,04,17,11,16,13.90
2016,04,17,11,17,13.90
2016,04,17,11,18,13.90
2016,04,17,11,19,13.90
2016,04,17,11,20,13.90
2016,04,17,11,21,13.90
2016,04,17,11,22,13.90
2016,04,17,11,23,13.90
2016,04,17,11,24,13.90
2016,04,17,11,25,13.90
2016,04,17,11,26,13.80
2016,04,17,11,27,13.80
2016,04,17,11,28,13.80
2016,04,17,11,29,13.70
2016,04,17,11,30,13.70
2016,04,17,11,31,13.70
2016,04,17,11,32,13.70
2016,04,17,11,33,13.60
2016,04,17,11,34,13.60
2016,04,17,11,35,13.60
2016,04,17,11,36,13.50
2016,04,17,11,37,13.50
2016,04,17,11,38,13.40
2016,04,17,11,39,13.40
2016,04,17,11,40,13.40
2016,04,17,11,41,13.40
2016,04,17,11,42,13.40
2016,04,17,11,43,13.50
2016,04,17,11,44,13.50
2016,04,17,11,45,13.60
2016,04,17,11,46,13.70
2016,04,17,11,47,13.70
2016,04,17,11,48,13.60
2016,04,17,11,49,13.70
2016,04,17,11,50,13.70
2016,04,17,11,51,13.70
2016,04,17,11,52,13.70
2016,04,17,11,53,13.70
2016,04,17,11,54,13.70
2016,04,17,11,55,13.80
2016,04,17,11,56,13.80
2016,04,17,11,57,13.80
2016,04,17,11,58,13.90
2016,04,17,11,59,13.90
2016,04,17,12,00,14.00
2016,04,17,12,01,14.00
2016,04,17,12,02,14.10
2016,04,17,12,03,14.10
2016,04,17,12,04,14.20
2016,04,17,12,05,14.20
2016,04,17,12,06,14.20
2016,04,17,12,07,14.30
2016,04,17,12,08,14.30
2016,04,17,12,09,14.30
2016,04,17,12,10,14.30
2016,04,17,12,11,14.20
2016,04,17,12,12,14.20
2016,04,17,12,13,14.20
2016,04,17,12,14,14.20
2016,04,17,12,15,14.20
2016,04,17,12,16,14.20
2016,04,17,12,17,14.20
2016,04,17,12,18,14.30
2016,04,17,12,19,14.20
2016,04,17,12,20,14.30
2016,04,17,12,21,14.30
2016,04,17,12,22,14.30
2016,04,17,12,23,14.40
2016,04,17,12,24,14.40
2016,04,17,12,25,14.40
2016,04,17,12,26,14.40
2016,04,17,12,27,14.50
2016,04,17,12,28,14.60
2016,04,17,12,29,14.60
2016,04,17,12,30,14.60
2016,04,17,12,31,14.70
2016,04,17,12,32,14.70
2016,04,17,12,33,14.70
2016,04,17,12,34,14.70
2016,04,17,12,35,14.70
2016,04,17,12,36,14.80
2016,04,17,12,37,14.70
2016,04,17,12,38,14.70
2016,04,17,12,39,14.70
2016,04,17,12,40,14.60
2016,04,17,12,41,14.60
2016,04,17,12,42,14.60
2016,04,17,12,43,14.60
2016,04,17,12,44,14.70
2016,04,17,12,45,14.70
2016,04,17,12,46,14.80
2016,04,17,12,47,14.80
2016,04,17,12,48,14.90
2016,04,17,12,49,14.90
2016,04,17,12,50,15.00
2016,04,17,12,51,15.00
2016,04,17,12,52,15.00
2016,04,17,12,53,15.00
2016,04,17,12,54,15.00
2016,04,17,12,55,15.00
2016,04,17,12,56,15.00
2016,04,17,12,57,15.10
2016,04,17,12,58,15.10
2016,04,17,12,59,15.10
2016,04,17,13,00,15.00
2016,04,17,13,01,15.00
2016,04,17,13,02,14.90
2016,04,17,13,03,14.90
2016,04,17,13,04,14.90
2016,04,17,13,05,14.90
2016,04,17,13,06,14.80
2016,04,17,13,07,14.80
2016,04,17,13,08,14.80
2016,04,17,13,09,14.70
2016,04,17,13,10,14.70
2016,04,17,13,11,14.70
2016,04,17,13,12,14.80
2016,04,17,13,13,14.80
2016,04,17,13,14,14.80
2016,04,17,13,15,14.90
2016,04,17,13,16,14.90
2016,04,17,13,17,14.90
2016,04,17,13,18,14.90
2016,04,17,13,19,14.90
2016,04,17,13,20,14.90
2016,04,17,13,21,14.90
2016,04,17,13,22,14.90
2016,04,17,13,23,14.90
2016,04,17,13,24,14.90
2016,04,17,13,25,14.90
2016,04,17,13,26,14.90
2016,04,17,13,27,14.90
2016,04,17,13,28,14.90
2016,04,17,13,29,14.90
2016,04,17,13,30,14.90
2016,04,17,13,31,14.90
2016,04,17,13,32,14.80
2016,04,17,13,33,14.80
2016,04,17,13,34,14.90
2016,04,17,13,35,14.90
2016,04,17,13,36,14.90
2016,04,17,13,37,14.80
2016,04,17,13,38,14.80
2016,04,17,13,39,14.80
2016,04,17,13,40,14.80
2016,04,17,13,41,14.80
2016,04,17,13,42,14.80
2016,04,17,13,43,14.80
2016,04,17,13,44,14.90
2016,04,17,13,45,15.00
2016,04,17,13,46,15.00
2016,04,17,13,47,15.10
2016,04,17,13,48,15.20
2016,04,17,13,49,15.20
2016,04,17,13,50,15.20
2016,04,17,13,51,15.20
2016,04,17,13,52,15.20
2016,04,17,13,53,15.20
2016,04,17,13,54,15.20
2016,04,17,13,55,15.20
2016,04,17,13,56,15.30
2016,04,17,13,57,15.30
2016,04,17,13,58,15.30
2016,04,17,13,59,15.30
2016,04,17,14,00,15.40
2016,04,17,14,01,15.40
2016,04,17,14,02,15.50
2016,04,17,14,03,15.60
2016,04,17,14,04,15.60
2016,04,17,14,05,15.70
2016,04,17,14,06,15.70
2016,04,17,14,07,15.80
2016,04,17,14,08,15.80
2016,04,17,14,09,15.90
2016,04,17,14,10,16.00
2016,04,17,14,11,16.10
2016,04,17,14,12,16.10
2016,04,17,14,13,16.10
2016,04,17,14,14,16.20
2016,04,17,14,15,16.20
2016,04,17,14,16,16.20
2016,04,17,14,17,16.30
2016,04,17,14,18,16.40
2016,04,17,14,19,16.40
2016,04,17,14,20,16.50
2016,04,17,14,21,16.50
2016,04,17,14,22,16.50
2016,04,17,14,23,16.50
2016,04,17,14,24,16.50
2016,04,17,14,25,16.60
2016,04,17,14,26,16.60
2016,04,17,14,27,16.60
2016,04,17,14,28,16.60
2016,04,17,14,29,16.70
2016,04,17,14,30,16.70
2016,04,17,14,31,16.80
2016,04,17,14,32,16.80
2016,04,17,14,33,16.80
2016,04,17,14,34,16.80
2016,04,17,14,35,16.90
2016,04,17,14,36,16.90
2016,04,17,14,37,16.90
2016,04,17,14,38,17.00
2016,04,17,14,39,17.00
2016,04,17,14,40,17.10
2016,04,17,14,41,17.10
2016,04,17,14,42,17.10
2016,04,17,14,43,17.20
2016,04,17,14,44,17.20
2016,04,17,14,45,17.20
2016,04,17,14,46,17.30
2016,04,17,14,47,17.30
2016,04,17,14,48,17.30
2016,04,17,14,49,17.40
2016,04,17,14,50,17.40
2016,04,17,14,51,17.50
2016,04,17,14,52,17.50
2016,04,17,14,53,17.50
2016,04,17,14,54,17.50
2016,04,17,14,55,17.50
2016,04,17,14,56,17.50
2016,04,17,14,57,17.50
2016,04,17,14,58,17.50
2016,04,17,14,59,17.50
2016,04,17,15,00,17.50
2016,04,17,15,01,17.50
2016,04,17,15,02,17.40
2016,04,17,15,03,17.40
2016,04,17,15,04,17.40
2016,04,17,15,05,17.40
2016,04,17,15,06,17.40
2016,04,17,15,07,17.50
2016,04,17,15,08,17.50
2016,04,17,15,09,17.50
2016,04,17,15,10,17.40
2016,04,17,15,11,17.40
2016,04,17,15,12,17.40
2016,04,17,15,13,17.30
2016,04,17,15,14,17.30
2016,04,17,15,15,17.30
2016,04,17,15,16,17.30
2016,04,17,15,17,17.30
2016,04,17,15,18,17.30
2016,04,17,15,19,17.30
2016,04,17,15,20,17.30
2016,04,17,15,21,17.30
2016,04,17,15,22,17.30
2016,04,17,15,23,17.30
2016,04,17,15,24,17.30
2016,04,17,15,25,17.30
2016,04,17,15,26,17.30
2016,04,17,15,27,17.30
2016,04,17,15,28,17.30
2016,04,17,15,29,17.20
2016,04,17,15,30,17.20
2016,04,17,15,31,17.10
2016,04,17,15,32,17.10
2016,04,17,15,33,17.10
2016,04,17,15,34,17.20
2016,04,17,15,35,17.20
2016,04,17,15,36,17.20
2016,04,17,15,37,17.20
2016,04,17,15,38,17.20
2016,04,17,15,39,17.10
2016,04,17,15,40,17.10
2016,04,17,15,41,17.10
2016,04,17,15,42,17.10
2016,04,17,15,43,17.10
2016,04,17,15,44,17.10
2016,04,17,15,45,17.10
2016,04,17,15,46,17.10
2016,04,17,15,47,17.20
2016,04,17,15,48,17.20
2016,04,17,15,49,17.30
2016,04,17,15,50,17.30
2016,04,17,15,51,17.30
2016,04,17,15,52,17.30
2016,04,17,15,53,17.40
2016,04,17,15,54,17.40
2016,04,17,15,55,17.40
2016,04,17,15,56,17.40
2016,04,17,15,57,17.40
2016,04,17,15,58,17.40
2016,04,17,15,59,17.50
2016,04,17,16,00,17.40
2016,04,17,16,01,17.50
2016,04,17,16,02,17.50
2016,04,17,16,03,17.50
2016,04,17,16,04,17.50
2016,04,17,16,05,17.50
2016,04,17,16,06,17.50
2016,04,17,16,07,17.50
2016,04,17,16,08,17.50
2016,04,17,16,09,17.50
2016,04,17,16,10,17.50
2016,04,17,16,11,17.50
2016,04,17,16,12,17.60
2016,04,17,16,13,17.60
2016,04,17,16,14,17.60
2016,04,17,16,15,17.60
2016,04,17,16,16,17.60
2016,04,17,16,17,17.60
2016,04,17,16,18,17.60
2016,04,17,16,19,17.60
2016,04,17,16,20,17.70
2016,04,17,16,21,17.70
2016,04,17,16,22,17.70
2016,04,17,16,23,17.70
2016,04,17,16,24,17.70
2016,04,17,16,25,17.80
2016,04,17,16,26,17.80
2016,04,17,16,27,17.80
2016,04,17,16,28,17.80
2016,04,17,16,29,17.90
2016,04,17,16,30,17.80
2016,04,17,16,31,17.80
2016,04,17,16,32,17.80
2016,04,17,16,33,17.80
2016,04,17,16,34,17.80
2016,04,17,16,35,17.80
2016,04,17,16,36,17.90
2016,04,17,16,37,17.90
2016,04,17,16,38,17.90
2016,04,17,16,39,18.00
2016,04,17,16,40,18.00
2016,04,17,16,41,18.10
2016,04,17,16,42,18.10
2016,04,17,16,43,18.20
2016,04,17,16,44,18.20
2016,04,17,16,45,18.30
2016,04,17,16,46,18.30
2016,04,17,16,47,18.30
2016,04,17,16,48,18.30
2016,04,17,16,49,18.30
2016,04,17,16,50,18.30
2016,04,17,16,51,18.30
2016,04,17,16,52,18.30
2016,04,17,16,53,18.30
2016,04,17,16,54,18.30
2016,04,17,16,55,18.30
2016,04,17,16,56,18.20
2016,04,17,16,57,18.20
2016,04,17,16,58,18.20
2016,04,17,16,59,18.20
2016,04,17,17,00,18.20
2016,04,17,17,01,18.20
2016,04,17,17,02,18.20
2016,04,17,17,03,18.20
2016,04,17,17,04,18.20
2016,04,17,17,05,18.20
2016,04,17,17,06,18.20
2016,04,17,17,07,18.20
2016,04,17,17,08,18.20
2016,04,17,17,09,18.20
2016,04,17,17,10,18.10
2016,04,17,17,11,18.00
2016,04,17,17,12,17.90
2016,04,17,17,13,17.80
2016,04,17,17,14,17.70
2016,04,17,17,15,17.60
2016,04,17,17,16,17.50
2016,04,17,17,17,17.40
2016,04,17,17,18,17.40
2016,04,17,17,19,17.30
2016,04,17,17,20,17.30
2016,04,17,17,21,17.30
2016,04,17,17,22,17.30
2016,04,17,17,23,17.30
2016,04,17,17,24,17.30
2016,04,17,17,25,17.30
2016,04,17,17,26,17.30
2016,04,17,17,27,17.30
2016,04,17,17,28,17.30
2016,04,17,17,29,17.30
2016,04,17,17,30,17.30
2016,04,17,17,31,17.30
2016,04,17,17,32,17.30
2016,04,17,17,33,17.30
2016,04,17,17,34,17.40
2016,04,17,17,35,17.40
2016,04,17,17,36,17.50
2016,04,17,17,37,17.50
2016,04,17,17,38,17.50
2016,04,17,17,39,17.60
2016,04,17,17,40,17.60
2016,04,17,17,41,17.60
2016,04,17,17,42,17.60